[[{"header":{"parameterUnit":"m.s-1","parameterCategory":1,"la1":30.2991,"la2":30.254,"lo1":-89.0895,"lo2":-89.0444,"dy":0.0017,"dx":0.0017,"nx":28,"ny":28,"refTime":"2023-08-11T21:00:00:Z","depth":0,"parameterNumber":2,"parameterNumberName":"U-component_of_WINDS"},"data":[0,0,0,0,0,0,0,0,0,0,0,0,0,0,0,0,0,0,0,0,0,0,0,0,0,0,0,0,0,0,0,0,0,0,0,0,0,0,0,0,0,0,0,0,0,0,0,0,0,0,0,0,0,0,0,0,0,0,4.8392,4.8393,0,4.8517,4.8518,4.852,4.8465,4.8462,4.8459,4.8456,4.8583,4.8589,4.8595,0,0,0,0,0,0,0,0,0,0,0,0,0,4.8102,4.8108,4.8392,4.8393,4.8395,4.8517,4.8518,4.852,4.8465,4.8462,4.8458,4.8455,4.8581,4.8588,4.8596,0,0,0,0,0,0,0,0,0,0,0,0,0,4.8228,4.811,4.8391,4.8382,4.8383,4.8516,4.8518,4.8521,4.8466,4.8462,4.8457,4.8453,4.8578,4.8587,4.8597,4.8746,0,0,4.8625,4.8629,0,0,0,0,0,0,0,0,4.8221,4.8238,4.8382,4.8383,4.8384,4.8471,4.8463,4.8596,4.8467,4.8435,4.8456,4.8451,4.8549,4.8561,4.8594,4.8752,4.8758,4.8626,4.8632,4.8636,4.8638,0,0,0,0,0,0,0,4.8212,4.8233,4.8441,4.8384,4.8385,4.8371,4.8384,4.8488,4.8516,4.8437,4.8433,4.8449,4.8549,4.8585,4.8597,4.8759,4.8626,4.8634,4.864,4.8644,4.9042,4.9047,0,0,0,0,0,0,4.8204,4.8226,4.8437,4.8445,4.8289,4.838,4.8394,4.8447,4.8515,4.8521,4.8453,4.8446,4.8572,4.8586,4.8601,4.8777,4.8636,4.8644,4.865,4.9037,4.9043,4.9048,0,0,0,0,0,0,4.8198,4.8223,4.8432,4.8334,4.836,4.839,4.845,4.8452,4.8489,4.8527,4.8531,4.8485,4.8568,4.8588,4.871,4.8781,4.8649,4.8657,4.9031,4.9039,4.9046,4.9133,0,0,0,0,0,0,4.819,4.8221,4.8279,4.8336,4.8365,4.854,4.8455,4.8458,4.8505,4.8497,4.8558,4.8564,4.8566,4.8696,4.8719,4.8791,4.8664,4.9025,4.9035,4.9043,4.9124,4.9142,4.9158,0,0,0,0,0,4.8179,4.8299,4.8283,4.8308,4.8439,4.8544,4.8561,4.8562,4.8511,4.8569,4.8593,4.8562,4.877,4.8709,4.8734,4.8811,4.902,4.9032,4.9043,4.9116,4.9139,4.9158,0,0,0,0,0,0,4.825,4.8307,4.8289,4.8431,4.8483,4.8535,4.8608,4.8586,4.8654,4.8644,4.8642,4.8656,4.8781,4.8808,4.8739,4.8957,4.8887,4.8904,4.8934,4.8956,4.8973,4.8962,4.8672,0,0,0,0,0,4.8283,4.8364,4.8409,4.853,4.8557,4.8578,4.8624,4.862,4.8674,4.8696,4.8729,4.8782,4.8858,4.8909,4.8982,4.9128,4.9138,4.9193,4.921,4.9224,4.9238,4.9313,4.9336,4.9085,4.9085,4.9085,0,0,4.835,4.8391,4.8443,4.8545,4.8585,4.8668,4.8597,4.8689,4.875,4.871,4.8825,4.8852,4.891,4.9044,4.9104,4.907,4.931,4.9238,4.9249,4.9255,4.9327,4.935,4.9371,4.9093,4.9092,4.909,0,0,4.8514,4.8555,4.8658,4.8699,4.8761,4.8773,4.8798,4.8853,4.8868,4.8985,4.8956,4.9028,4.9162,4.9203,4.9242,4.942,4.9392,4.9444,4.9533,4.9607,4.9626,4.9644,4.9704,4.9725,4.9458,4.9458,4.9458,0,4.8589,4.8714,4.8714,4.8807,4.8852,4.8819,4.8922,4.8962,4.9045,4.9075,4.9037,4.9201,4.9239,4.9379,4.9422,4.9456,4.9482,4.9436,4.9624,4.9641,4.9657,4.9714,4.9737,4.9464,4.9463,4.9462,4.9462,0,4.8802,4.8889,4.8965,4.9044,4.9098,4.9196,4.9209,4.9263,4.9254,4.927,4.9387,4.9431,4.9511,4.9545,4.9538,4.9684,4.966,4.9623,4.9553,4.9687,4.974,4.9762,4.9472,4.947,4.9468,4.9467,0,0,4.9014,4.9091,4.9118,4.9152,4.9217,4.9283,4.9379,4.9456,4.9501,4.9559,4.9636,4.9749,4.9714,4.9758,4.9755,4.982,4.9953,4.9774,4.9775,4.9803,5.0113,5.0138,5.0164,4.9937,4.9941,4.9944,5.0107,0,4.9181,4.9348,4.9349,4.9503,4.9581,4.955,4.9633,4.968,4.9698,4.9766,4.9785,4.9863,4.9813,4.9839,4.9902,4.9924,5.0015,4.9913,5.0007,5.001,4.999,5.0192,5.022,5.0371,5.0128,5.0132,5.0134,0,4.9397,4.946,4.9621,4.9671,4.9704,4.9778,4.9848,4.9914,4.9966,4.9974,5.0023,5.0009,5.0104,5.0032,5.0161,5.0092,5.013,5.0147,5.0153,5.0159,5.0078,5.0201,5.042,5.0441,5.0168,5.0165,5.0163,0,4.9531,4.9657,4.9768,4.9799,4.9861,4.9913,4.9941,4.9989,5.0035,5.0096,5.0124,5.0196,5.0234,5.0289,5.0294,5.0243,5.0423,5.0353,5.043,5.043,5.0467,5.0464,5.0692,5.0498,5.0498,5.0497,5.0497,0,4.9715,4.9814,4.9829,4.9897,5.0006,5.0006,5.0113,5.0137,5.0179,5.025,5.0229,5.0296,5.03,5.0368,5.0373,5.0477,5.0496,5.0503,5.0502,5.0503,5.0501,5.0526,5.0514,5.0503,5.0502,5.0501,5.05,0,4.9882,4.9897,5.0015,5.0064,5.0078,5.0156,5.0197,5.0261,5.0276,5.0365,5.0387,5.041,5.0489,5.05,5.0593,5.0596,5.0719,5.071,5.0701,5.0699,5.0774,5.0765,5.1023,5.1055,5.0843,5.0845,5.0847,0,4.9997,5.0072,5.0128,5.0174,5.0204,5.0279,5.0325,5.0327,5.0376,5.0439,5.0495,5.0572,5.0633,5.076,5.0784,5.0854,5.0843,5.0929,5.0854,5.0851,5.084,5.0834,5.084,5.0942,5.0945,5.0947,5.0948,0,5.0198,5.0201,5.0268,5.0337,5.0392,5.0447,5.0499,5.0537,5.0546,5.0601,5.0681,5.0729,5.0822,5.0897,5.0966,5.0993,5.0971,5.0972,5.0993,5.0992,5.0983,5.0985,5.0737,5.0965,5.0964,5.0962,5.0961,5.0961,5.034,5.0404,5.0452,5.0527,5.0566,5.0614,5.0675,5.0697,5.0764,5.084,5.0837,5.0924,5.0972,5.1062,5.1094,5.1161,5.1132,5.1164,5.1171,5.1178,5.1183,5.0975,5.1174,5.1173,5.1173,5.1172,5.1172,0,5.0537,5.0566,5.0635,5.0706,5.0765,5.074,5.0795,5.0845,5.0921,5.0968,5.1028,5.1118,5.119,5.122,5.129,5.1337,5.1329,5.1355,5.135,5.1356,5.1206,5.1179,5.1361,5.1361,5.1361,5.1361,5.136,5.136,5.0645,5.0751,5.0759,5.0882,5.0911,5.0995,5.1028,5.1071,5.1108,5.1209,5.1269,5.1288,5.1327,5.1399,5.1463,5.147,5.1495,5.1525,5.1527,5.1386,5.1367,5.1349,5.1323,5.1532,5.1532,5.1671,5.1672,5.1673]},{"header":{"parameterUnit":"m.s-1","parameterCategory":1,"la1":30.2991,"la2":30.254,"lo1":-89.0895,"lo2":-89.0444,"dy":0.0017,"dx":0.0017,"nx":28,"ny":28,"refTime":"2023-08-11T21:00:00:Z","depth":0,"parameterNumber":3,"parameterNumberName":"V-component_of_WINDS"},"data":[0,0,0,0,0,0,0,0,0,0,0,0,0,0,0,0,0,0,0,0,0,0,0,0,0,0,0,0,0,0,0,0,0,0,0,0,0,0,0,0,0,0,0,0,0,0,0,0,0,0,0,0,0,0,0,0,0,0,2.1658,2.1659,0,2.1756,2.1757,2.1758,2.1755,2.1753,2.1752,2.1751,2.185,2.1854,2.1858,0,0,0,0,0,0,0,0,0,0,0,0,0,2.1467,2.147,2.1658,2.1659,2.166,2.1755,2.1757,2.1758,2.1755,2.1753,2.1752,2.175,2.1849,2.1854,2.1858,0,0,0,0,0,0,0,0,0,0,0,0,0,2.1555,2.1471,2.1658,2.167,2.1672,2.1755,2.1757,2.1758,2.1755,2.1753,2.1751,2.1749,2.1847,2.1853,2.1859,2.1935,0,0,2.1877,2.1879,0,0,0,0,0,0,0,0,2.155,2.1563,2.1667,2.167,2.1672,2.1741,2.1726,2.1818,2.1756,2.1724,2.1751,2.1748,2.1815,2.1824,2.1847,2.194,2.1944,2.1877,2.1881,2.1883,2.1885,0,0,0,0,0,0,0,2.1544,2.1558,2.1696,2.1669,2.1672,2.167,2.1681,2.1743,2.178,2.1726,2.1726,2.1738,2.1816,2.1841,2.1849,2.1946,2.1877,2.1882,2.1886,2.1888,2.2105,2.2107,0,0,0,0,0,0,2.1536,2.1553,2.1693,2.1699,2.1605,2.1675,2.1687,2.1721,2.1779,2.1786,2.174,2.1738,2.1832,2.1842,2.1852,2.1945,2.1883,2.1889,2.1892,2.2103,2.2105,2.2108,0,0,0,0,0,0,2.1532,2.1548,2.1689,2.1626,2.1644,2.1681,2.1719,2.1724,2.1748,2.1789,2.1795,2.1758,2.1831,2.1844,2.1914,2.1948,2.1891,2.1897,2.21,2.2103,2.2107,2.2131,0,0,0,0,0,0,2.1526,2.1547,2.1577,2.1627,2.1648,2.1751,2.1721,2.1727,2.1759,2.1757,2.1808,2.1815,2.183,2.1906,2.192,2.1955,2.1901,2.2097,2.2101,2.2105,2.2127,2.2134,2.2141,0,0,0,0,0,2.1519,2.158,2.1578,2.1595,2.1686,2.1753,2.1764,2.1781,2.1761,2.1791,2.1817,2.1813,2.1942,2.1913,2.1929,2.1967,2.2095,2.21,2.2105,2.2124,2.2133,2.2141,0,0,0,0,0,0,2.1533,2.1587,2.1586,2.1665,2.1704,2.1752,2.1791,2.179,2.1836,2.1832,2.1851,2.1862,2.1933,2.1956,2.1923,2.2043,2.2016,2.2024,2.2025,2.2034,2.204,2.2033,2.1906,0,0,0,0,0,2.1545,2.1595,2.1639,2.1705,2.1725,2.1754,2.1784,2.1793,2.1834,2.1851,2.1882,2.1922,2.1971,2.2004,2.2052,2.213,2.2141,2.2164,2.217,2.2176,2.2183,2.2225,2.2235,2.2124,2.2124,2.2124,0,0,2.1571,2.1607,2.1637,2.1708,2.174,2.1791,2.1768,2.1823,2.1861,2.1859,2.1928,2.1951,2.1997,2.2072,2.2106,2.2094,2.2216,2.2182,2.2186,2.2191,2.2231,2.2242,2.2251,2.2128,2.2127,2.2127,0,0,2.1644,2.1677,2.1734,2.1766,2.1814,2.1833,2.1846,2.1894,2.191,2.1978,2.1978,2.2022,2.2107,2.2139,2.2167,2.2249,2.2247,2.2264,2.2301,2.2341,2.235,2.2358,2.2387,2.2397,2.2271,2.2272,2.2272,0,2.1671,2.1747,2.1763,2.1818,2.1849,2.185,2.1907,2.1937,2.1998,2.2019,2.2004,2.211,2.2141,2.2222,2.2242,2.2264,2.2279,2.2259,2.2347,2.2355,2.2363,2.2391,2.2401,2.2273,2.2273,2.2273,2.2273,0,2.1777,2.183,2.187,2.1929,2.1964,2.202,2.2043,2.2077,2.2082,2.2102,2.2171,2.2208,2.2262,2.2282,2.2289,2.2364,2.2355,2.2343,2.2317,2.2375,2.2401,2.2412,2.2276,2.2275,2.2275,2.2274,0,0,2.1863,2.1928,2.1943,2.1968,2.202,2.2061,2.2116,2.2169,2.2197,2.2239,2.2285,2.2356,2.2345,2.2376,2.2386,2.2421,2.2483,2.2406,2.2407,2.2418,2.2567,2.2575,2.2587,2.2481,2.2484,2.2485,2.2563,0,2.1941,2.2039,2.2054,2.2141,2.2189,2.2189,2.2237,2.2273,2.2293,2.2336,2.2358,2.2407,2.239,2.2409,2.2444,2.2468,2.2513,2.2463,2.2524,2.2526,2.2513,2.2601,2.261,2.2682,2.2574,2.2575,2.2577,0,2.2046,2.2089,2.2181,2.2224,2.2245,2.2288,2.2337,2.2378,2.2419,2.2431,2.2464,2.2469,2.2525,2.2496,2.2572,2.2538,2.2563,2.2578,2.2582,2.2588,2.2555,2.261,2.2706,2.2716,2.2593,2.2592,2.259,0,2.2099,2.218,2.2245,2.2267,2.232,2.235,2.2373,2.2411,2.2442,2.2484,2.2504,2.2552,2.2579,2.2616,2.2633,2.261,2.2708,2.268,2.2719,2.2718,2.274,2.2738,2.2841,2.2756,2.2756,2.2756,2.2756,0,2.2185,2.224,2.2269,2.2309,2.237,2.2386,2.2447,2.2469,2.2503,2.2546,2.2549,2.259,2.261,2.2653,2.2667,2.2727,2.2739,2.275,2.2753,2.275,2.2748,2.2767,2.2762,2.2759,2.2758,2.2758,2.2757,0,2.2255,2.2276,2.2347,2.239,2.2402,2.2446,2.2483,2.2521,2.2539,2.2594,2.2608,2.2637,2.2687,2.2708,2.277,2.2779,2.2849,2.2848,2.2836,2.2836,2.2873,2.2869,2.2992,2.3008,2.2913,2.2914,2.2914,0,2.2308,2.2351,2.2398,2.2427,2.2451,2.2499,2.2529,2.2546,2.2578,2.2626,2.2658,2.2708,2.275,2.2831,2.2857,2.2904,2.2904,2.2944,2.2912,2.2906,2.2904,2.2902,2.2905,2.295,2.2951,2.2952,2.2952,0,2.24,2.2408,2.2453,2.25,2.2537,2.2575,2.2612,2.2636,2.2658,2.2693,2.2745,2.2777,2.284,2.289,2.2938,2.2961,2.296,2.2962,2.2973,2.2971,2.2961,2.2966,2.2852,2.2959,2.2959,2.2958,2.2958,2.2957,2.2463,2.25,2.2539,2.2588,2.2618,2.2652,2.269,2.2712,2.2756,2.2808,2.2815,2.287,2.2908,2.2973,2.2997,2.304,2.303,2.3047,2.3051,2.3055,2.3057,2.2954,2.3049,2.3049,2.3049,2.3049,2.3049,0,2.2555,2.258,2.2624,2.2676,2.2714,2.2709,2.275,2.2782,2.283,2.2865,2.2906,2.2964,2.3012,2.3042,2.3089,2.3118,2.3118,2.313,2.3128,2.3133,2.3063,2.3049,2.3128,2.3128,2.3128,2.3128,2.3128,2.3128,2.2607,2.267,2.2682,2.2759,2.2783,2.2837,2.286,2.2891,2.2919,2.2985,2.3024,2.3043,2.3076,2.3125,2.3169,2.3176,2.3193,2.3205,2.3212,2.3146,2.3138,2.313,2.3116,2.3209,2.3209,2.3278,2.3278,2.3279]}]]